Regional Weather Roundup
Issued by NWS

Home | Current Version | Previous Version | Graphics & Text | Print | Product List | Glossary On
Versions: 1 2 3 4 5 6 7 8 9 10 11 12 13 14 15 16 17 18 19 20 21 22 23 24 25 26 27 28 29 30 31 32 33 34 35 36 37 38 39 40 41 42 43 44 45 46 47 48 49 50
000
ASUS43 KLOT 200112
RWRIL

ILLINOIS REGIONAL WEATHER ROUNDUP
NATIONAL WEATHER SERVICE CHICAGO/ROMEOVILLE IL
700 PM CST SUN FEB 19 2017

NOTE: "FAIR" INDICATES FEW OR NO CLOUDS BELOW 12,000 FEET WITH NO
SIGNIFICANT WEATHER AND/OR OBSTRUCTIONS TO VISIBILITY.

* THESE STATIONS ARE NOT UNDER NWS QUALITY CONTROL. THEY ALSO MAY NOT
  REPORT WEATHER SUCH AS PRECIPITATION OR FOG.

ILZ001-002-007-009-015-016-024-200200-
NORTHWEST ILLINOIS

CITY           SKY/WX    TMP DP  RH WIND       PRES   REMARKS
MOLINE         CLOUDY    60  43  53 SE12      29.99R
STERLING*      CLOUDY    52  42  69 E5        30.02R
SAVANNA*       MOCLDY    56  38  52 SE9       30.00R
$$

ILZ003-004-008-010-011-017-018-200200-
NORTH CENTRAL ILLINOIS

CITY           SKY/WX    TMP DP  RH WIND       PRES   REMARKS
ROCKFORD       CLOUDY    55  40  56 SE8       30.05S
FREEPORT*      CLOUDY    43  35  71 SE7       30.04R
ROCHELLE*      PTCLDY    47  38  72 SE9       30.04S
DE KALB*       PTCLDY    54  40  59 SE9       30.05S
PERU*          CLOUDY    58  37  44 SE7       30.04S
$$

ILZ005-006-012>014-019>023-200200-
NORTHEAST ILLINOIS

CITY           SKY/WX    TMP DP  RH WIND       PRES   REMARKS
CHICAGO-OHARE  PTCLDY    51  32  48 E6        30.06S
CHICAGO-MIDWAY CLOUDY    51  30  44 E7        30.08R
AURORA         CLOUDY    53  39  59 SE7       30.05S
LANSING*       PTCLDY    51  38  61 CALM      30.09R
JOLIET*        CLOUDY    55  44  66 SE6       30.07S
WAUKEGAN       CLOUDY    38  31  76 CALM      30.07R
DUPAGE AIRPORT CLOUDY    51  37  58 SE7       30.05S
KANKAKEE*      CLOUDY    50  42  73 CALM      30.08S
WHEELING       PTCLDY    48  30  49 CALM      30.09R
MORRIS*        CLOUDY    54  39  58 CALM      30.05R
ROMEOVILLE*    CLEAR     53  44  69 SE7       30.06F
NORTHERLY ISL    N/A     41  32  70 SE2         N/A
$$

LMZ740>746-200200-
SOUTHERN LAKE MICHIGAN

STATION/POSITION SKY/WX   TEMP    WIND        PRES    VSBY  WAVE
                          AIR SEA DIR/SP/G                  HT/PER
                          (F)     (DEG/KT/KT) (MB)    (MI)  (FT/S)
HARRISON CRIB              44     170/  7/  8   N/A
BURNHAM HARBOR             41     170/  1/  3   N/A
CALUMET HARBOR             44     100/  5/  7 1018.2R
BURNS HARBOR               46     100/  4/  6 1019.3R
MICHIGAN CITY              54      90/  2/  2   N/A
$$

ILZ025>027-034>036-040-047-049-050-058-095>099-200200-
WEST-CENTRAL ILLINOIS

CITY           SKY/WX    TMP DP  RH WIND       PRES   REMARKS
QUINCY         PTCLDY    62  47  57 SE8       29.98S
GALESBURG*     PTCLDY    59  45  60 E5        30.01R
MACOMB*        CLOUDY    60  46  61 SE8       30.02R
JACKSONVILLE*  PTCLDY    57  47  71 SE6       30.02S
PITTSFIELD*    PTCLDY    60  50  69 SE9       30.02R
$$

ILZ028>032-037-038-041>044-048-051>054-059>061-200200-
CENTRAL ILLINOIS

CITY           SKY/WX    TMP DP  RH WIND       PRES   REMARKS
PONTIAC        PTCLDY    52  44  73 SE8       30.06S
BLOOMINGTON    PTCLDY    56  42  59 SE9       30.06R
DECATUR        PTCLDY    55  49  80 SE8       30.07R
PEORIA         PTCLDY    60  45  57 SE5       30.03R
LACON*         CLOUDY    57  41  55 SE5       30.03R
LINCOLN*       PTCLDY    58  49  72 S7        30.05R
SPRINGFIELD    CLEAR     60  49  66 S10       30.05R
TAYLORVILLE    CLEAR     56  50  80 SE7       30.06R
$$

ILZ033-039-045-046-055>057-062-063-200200-
EAST-CENTRAL ILLINOIS

CITY           SKY/WX    TMP DP  RH WIND       PRES   REMARKS
CHAMPAIGN      PTCLDY    53  46  77 S7        30.07S
RANTOUL*       CLOUDY    56  47  70 S7        30.07S
MATTOON        CLEAR     52  50  93 S9        30.07R
PARIS*         CLEAR     48  46  91 SE6       30.10S
$$

ILZ079-100>102-200200-
SOUTHWEST ILLINOIS

CITY           SKY/WX    TMP DP  RH WIND       PRES   REMARKS
ALTON          PTCLDY    57  52  82 SE8       30.04R
BELLEVILLE     CLEAR     58  57  96 E8        30.03R
CAHOKIA*       CLEAR     63  51  65 SE12      30.03R
SPARTA*        CLEAR     59  53  80 SE7       30.06S
$$

ILZ064>066-069>071-074>076-080>082-084>086-088>090-092>094-200200-
SOUTH-CENTRAL ILLINOIS

CITY           SKY/WX    TMP DP  RH WIND       PRES   REMARKS
CARBONDALE     CLEAR     57  52  83 SE6       30.08R
CAIRO*         PTCLDY    53  53  99 NE3       30.08R
EFFINGHAM*     PTCLDY    51  51 100 SE7       30.10S FOG
MARION         CLEAR     59  57  94 S7        30.09R
MT. VERNON     CLEAR     52  50  93 E3        30.09R
CENTRALIA*     CLEAR     55  52  91 E5        30.07R
SALEM*         CLEAR     55  51  86 SE6       30.09R FOG
METROPOLIS*    CLEAR     52  51  97 CALM      30.10R FOG
$$

ILZ067-068-072-073-078-083-087-091-200200-
SOUTHEAST ILLINOIS

CITY           SKY/WX    TMP DP  RH WIND       PRES   REMARKS
LAWRENCEVILLE  CLEAR     48  46  93 S3        30.11S FOG
FLORA*         CLOUDY    54  51  90 S7        30.10S FOG
FAIRFIELD*     CLOUDY    52  51  97 SE3       30.09S FOG
HARRISBURG*    CLEAR     52  51  97 E3        30.10R
ROBINSON*      CLEAR     47  46  95 S3        30.11S FOG
CARMI*         CLEAR     47  47  99 E6        30.10S FOG
$$

ABBREVIATIONS USED IN REMARKS
   TC - TEMPERATURE IN CELSIUS
  WCI - WIND CHILL INDEX
   HX - HEAT INDEX
  VSB - VISIBILITY
$$




USA.gov is the U.S. government's official web portal to all federal, state and local government web resources and services.